SL-8 R/B, 1589

Orbit data source: Space-Track

SL-8 R/B, 1589 is space debris in LEO originally from a launch on Sat, 18 Sep 1965 UTC launched from the Tyuratam Missile And Space Complex (TTMTR). Debris objects in space refer to the collection of defunct objects orbiting the Earth. Examples of debris include non-operational satellites, rocket bodies, and fragments generated from explosions, collisions, or faulty payload assembly.

Loading next visibility...
SL-8 R/B details
Identifier
1589, 1965-073F
Orbit
LEO
Last TLE update1 day ago
Origin
Flag of CISRVSN (CIS)
ManufacturerYuzhnoe
MissionSpacecraft
Bus & MotorS3, Unknown motor
Mass1,434 kg wet, 1,434 kg dry
Launch date (UTC)
1965-09-18 (59 years ago)
Launch vehicleUnknown
Launch site
Tyuratam Missile And Space Complex (TTMTR)
Object type
Payload
Rocket body
Debris
Shape & HBRCyl, 6.57 m
Radar Cross Section14.646 m², Large (>1 m²)

Expand to show TLE details & history

TLE from 1 day ago
0 SL-8 R/B
1 01589U 65073F   24355.59979787 -.00000077  00000-0  11189-3 0  9992
2 01589  56.0533  54.7542 0160606  28.9441 136.9496 12.33046551668650
Epoch: 2024-12-20T14:23Z
Definitive object data (Epoch: 2024-12-20T14:23:42.535Z)
Latitude10.62963°
Longitude-78.05897°
Altitude1,630.342 km
Speed7.016 km/s
True Right ascension15h 10m 07s
True Declination10° 34' 27"
Sunlit
Object was in daylight at TLE epoch
Visualization TLE readout
Latitude-50.69801°
Longitude-18.71361°
Altitude1,653.245 km
Speed7.002 km/s
Apparent Right ascension23h 01m 19s
Apparent Declination-64° 19' 37"
Sunlit
Object is in daylight
Visualization observer readout
Local Sidereal Time15:11:02
Azimuth145.682° SSE
Elevation-47.065°
Doppler factor1
Orbital elements
Apogee altitude1,663.15 km
Perigee altitude1,408.937 km
Semi-major axis7,914.18 km
Eccentricity0.0160606
Inclination56.0533°
RAAN54.7542°
Arg. of periapsis28.9441°
True anomaly138.18767°
Mean anomaly136.9496°
Eccentric anomaly137.57045°
Mean motion3.08272 °/min
BSTAR0.00011189
Orbital period116.78 mins
Loading maneuver chart data...
Loading historical data...
Loading historical data...
Loading historical data...
Loading historical data...
Loading historical data...
Loading historical data...
Loading historical data...

SL-8 R/B Visibility forecast

Observer location: undefined°, undefined

Span
Click to sort rows by Start time (UTC) header in descending order
Start Az.
Max El. time (UTC)
Max El. Az.
Max El.
End time (UTC)
End Az.
11 mins2024-12-22 04:31:37.904Z160.32° S2024-12-22 04:36:37.904Z120.484° SE21.75°2024-12-22 04:42:37.904Z71.734° E
16 mins2024-12-22 06:30:37.904Z225.316° WSW2024-12-22 06:37:37.904Z249.509° W44.723°2024-12-22 06:46:37.904Z45.298° ENE
14 mins2024-12-22 08:34:37.904Z280.003° WNW2024-12-22 08:41:37.904Z345.086° N29.749°2024-12-22 08:48:37.904Z41.341° NE
14 mins2024-12-22 10:39:37.904Z315.258° NNW2024-12-22 10:45:37.904Z4.533° NNE25.747°2024-12-22 10:53:37.904Z65.663° ENE
16 mins2024-12-22 12:42:37.904Z321.042° NNW2024-12-22 12:49:37.904Z24.028° NE38.71°2024-12-22 12:58:37.904Z109.215° ESE
16 mins2024-12-22 14:44:37.904Z305.014° NW2024-12-22 14:52:37.904Z227.992° WSW38.492°2024-12-22 15:00:37.904Z163.412° S
|